When you browse on this site, cookies collect data to enhance your experience and personalize the content and advertising you see.
Visit our Privacy Policy to learn more. By continuing to use the site, you agree to this use of cookies and data.
  • în România
  • Lista ţărilor
  • Pe 7 zile
  • Temperatura apei
  • Meteo pe hartă
  • Widget-uri
  • user-avatar
    Intrare

    Meteo pe oră la Ho Chi Minh

    Astăzi, 6 Iunie, Sâmbătă

    Timp Temperatura Precipitaţii Vânt Presiune Umiditate
    00:00 +30°C° 0 mm 2 m/s 756 mmHg 78%
    01:00 +30°C° 0 mm 2 m/s 756 mmHg 80%
    02:00 +29°C° 0 mm 1 m/s 755 mmHg 81%
    03:00 +29°C° 0 mm 1 m/s 755 mmHg 82%
    04:00 +29°C° 0 mm 1 m/s 755 mmHg 82%
    05:00 +29°C° 0 mm 1 m/s 755 mmHg 80%
    06:00 +30°C° 0 mm 1 m/s 756 mmHg 78%
    07:00 +30°C° 0 mm 1 m/s 756 mmHg 74%
    08:00 +32°C° 0 mm 1 m/s 756 mmHg 67%
    09:00 +34°C° 0 mm 2 m/s 756 mmHg 61%
    10:00 +36°C° 0 mm 2 m/s 756 mmHg 54%
    11:00 +36°C° 1.1 mm 3 m/s 756 mmHg 55%
    12:00 +36°C° 1.1 mm 3 m/s 756 mmHg 56%
    13:00 +36°C° 0 mm 3 m/s 756 mmHg 57%
    14:00 +36°C° 1.5 mm 3 m/s 755 mmHg 59%
    15:00 +35°C° 1.5 mm 3 m/s 754 mmHg 61%
    16:00 +35°C° 1.5 mm 3 m/s 754 mmHg 62%
    17:00 +34°C° 0.7 mm 3 m/s 754 mmHg 66%
    18:00 +32°C° 0.7 mm 2 m/s 755 mmHg 71%
    19:00 +31°C° 0.7 mm 2 m/s 755 mmHg 75%
    20:00 +31°C° 0 mm 2 m/s 755 mmHg 76%
    21:00 +30°C° 0 mm 2 m/s 756 mmHg 77%
    22:00 +30°C° 0 mm 2 m/s 757 mmHg 79%
    23:00 +30°C° 0 mm 2 m/s 756 mmHg 79%

    Mâine, 7 Iunie, Duminică

    Timp Temperatura Precipitaţii Vânt Presiune Umiditate
    00:00 +29°C° 0 mm 2 m/s 756 mmHg 80%
    01:00 +29°C° 0 mm 2 m/s 756 mmHg 81%
    02:00 +29°C° 0 mm 2 m/s 756 mmHg 82%
    03:00 +29°C° 0 mm 2 m/s 755 mmHg 83%
    04:00 +28°C° 0 mm 2 m/s 755 mmHg 83%
    05:00 +29°C° 0 mm 1 m/s 755 mmHg 82%
    06:00 +29°C° 0 mm 1 m/s 756 mmHg 81%
    07:00 +30°C° 0 mm 1 m/s 756 mmHg 80%
    08:00 +31°C° 0 mm 2 m/s 756 mmHg 74%
    09:00 +32°C° 0 mm 2 m/s 756 mmHg 68%
    10:00 +34°C° 0 mm 2 m/s 756 mmHg 62%
    11:00 +35°C° 0.1 mm 2 m/s 756 mmHg 58%
    12:00 +36°C° 0.1 mm 2 m/s 755 mmHg 54%
    13:00 +37°C° 0.1 mm 2 m/s 755 mmHg 49%
    14:00 +37°C° 0.1 mm 2 m/s 754 mmHg 50%
    15:00 +37°C° 0.1 mm 2 m/s 753 mmHg 52%
    16:00 +36°C° 0.1 mm 2 m/s 753 mmHg 53%
    17:00 +35°C° 0.5 mm 2 m/s 753 mmHg 59%
    18:00 +32°C° 0.5 mm 2 m/s 754 mmHg 66%
    19:00 +31°C° 0.5 mm 2 m/s 754 mmHg 73%
    20:00 +31°C° 0 mm 2 m/s 754 mmHg 75%
    21:00 +30°C° 0 mm 2 m/s 755 mmHg 76%
    22:00 +30°C° 0 mm 1 m/s 755 mmHg 78%
    23:00 +30°C° 0 mm 1 m/s 755 mmHg 79%

    Poimâine, 8 Iunie, Luni

    Timp Temperatura Precipitaţii Vânt Presiune Umiditate
    00:00 +29°C° 0 mm 2 m/s 755 mmHg 81%
    01:00 +29°C° 0 mm 2 m/s 755 mmHg 82%
    02:00 +29°C° 0 mm 2 m/s 755 mmHg 83%
    03:00 +29°C° 0 mm 2 m/s 754 mmHg 84%
    04:00 +28°C° 0 mm 1 m/s 754 mmHg 85%
    05:00 +29°C° 0 mm 1 m/s 755 mmHg 82%
    06:00 +29°C° 0 mm 1 m/s 755 mmHg 79%
    07:00 +30°C° 0 mm 1 m/s 756 mmHg 77%
    08:00 +32°C° 0 mm 2 m/s 756 mmHg 69%
    09:00 +34°C° 0 mm 2 m/s 756 mmHg 62%
    10:00 +36°C° 0 mm 3 m/s 756 mmHg 54%
    11:00 +36°C° 0 mm 3 m/s 755 mmHg 52%
    12:00 +37°C° 0 mm 3 m/s 755 mmHg 50%
    13:00 +38°C° 0 mm 3 m/s 754 mmHg 47%
    14:00 +37°C° 0.1 mm 3 m/s 754 mmHg 49%
    15:00 +37°C° 0.1 mm 4 m/s 753 mmHg 51%
    16:00 +36°C° 0.1 mm 4 m/s 753 mmHg 53%
    17:00 +35°C° 0.3 mm 3 m/s 753 mmHg 57%
    18:00 +34°C° 0.3 mm 3 m/s 754 mmHg 62%
    19:00 +32°C° 0.3 mm 2 m/s 754 mmHg 66%
    20:00 +31°C° 0 mm 2 m/s 755 mmHg 68%
    21:00 +31°C° 0 mm 2 m/s 755 mmHg 71%
    22:00 +31°C° 0 mm 2 m/s 756 mmHg 73%
    23:00 +30°C° 0.1 mm 2 m/s 755 mmHg 74%

    9 Iunie, Marţi

    Timp Temperatura Precipitaţii Vânt Presiune Umiditate
    00:00 +30°C° 0.1 mm 2 m/s 755 mmHg 75%
    01:00 +29°C° 0.1 mm 2 m/s 755 mmHg 77%
    02:00 +29°C° 0.1 mm 2 m/s 755 mmHg 78%
    03:00 +29°C° 0.1 mm 1 m/s 755 mmHg 80%
    04:00 +28°C° 0.1 mm 1 m/s 754 mmHg 82%
    05:00 +29°C° 0 mm 1 m/s 755 mmHg 80%
    06:00 +29°C° 0 mm 1 m/s 755 mmHg 78%
    07:00 +30°C° 0 mm 1 m/s 755 mmHg 76%
    08:00 +32°C° 0 mm 1 m/s 756 mmHg 69%
    09:00 +33°C° 0 mm 1 m/s 756 mmHg 62%
    10:00 +35°C° 0 mm 1 m/s 756 mmHg 55%
    11:00 +36°C° 0 mm 1 m/s 755 mmHg 50%
    12:00 +38°C° 0 mm 2 m/s 755 mmHg 46%
    13:00 +39°C° 0 mm 2 m/s 754 mmHg 42%
    14:00 +38°C° 0.1 mm 2 m/s 754 mmHg 45%
    15:00 +38°C° 0.1 mm 3 m/s 753 mmHg 49%
    16:00 +37°C° 0.1 mm 3 m/s 753 mmHg 52%
    17:00 +36°C° 0.2 mm 3 m/s 753 mmHg 57%
    18:00 +34°C° 0.2 mm 3 m/s 754 mmHg 62%
    19:00 +33°C° 0.2 mm 3 m/s 754 mmHg 67%
    20:00 +33°C° 0 mm 3 m/s 754 mmHg 69%
    21:00 +31°C° 0 mm 3 m/s 755 mmHg 72%
    22:00 +31°C° 0 mm 3 m/s 756 mmHg 74%
    23:00 +30°C° 0 mm 2 m/s 755 mmHg 75%

    10 Iunie, Miercuri

    Timp Temperatura Precipitaţii Vânt Presiune Umiditate
    00:00 +30°C° 0 mm 2 m/s 755 mmHg 77%
    01:00 +29°C° 0 mm 2 m/s 755 mmHg 78%
    02:00 +29°C° 0.1 mm 2 m/s 755 mmHg 80%
    03:00 +29°C° 0.1 mm 2 m/s 755 mmHg 82%
    04:00 +29°C° 0.1 mm 2 m/s 755 mmHg 84%
    05:00 +29°C° 0.1 mm 2 m/s 755 mmHg 82%
    06:00 +30°C° 0.1 mm 2 m/s 755 mmHg 81%
    07:00 +30°C° 0.1 mm 2 m/s 756 mmHg 80%
    08:00 +31°C° 0.1 mm 2 m/s 756 mmHg 74%
    09:00 +32°C° 0.1 mm 2 m/s 756 mmHg 68%
    10:00 +35°C° 0.1 mm 2 m/s 756 mmHg 62%
    11:00 +35°C° 0.8 mm 2 m/s 756 mmHg 60%
    12:00 +36°C° 0.8 mm 2 m/s 755 mmHg 57%
    13:00 +36°C° 0.8 mm 2 m/s 755 mmHg 54%
    14:00 +34°C° 4.4 mm 2 m/s 754 mmHg 65%
    15:00 +31°C° 4.4 mm 2 m/s 754 mmHg 75%
    16:00 +29°C° 4.4 mm 1 m/s 754 mmHg 85%
    17:00 +29°C° 0.6 mm 1 m/s 754 mmHg 85%
    18:00 +29°C° 0.6 mm 1 m/s 754 mmHg 84%
    19:00 +29°C° 0.6 mm 1 m/s 755 mmHg 84%
    20:00 +29°C° 0 mm 1 m/s 755 mmHg 84%
    21:00 +29°C° 0 mm 1 m/s 756 mmHg 83%
    22:00 +27°C° 0 mm 0 m/s 756 mmHg 83%
    23:00 +27°C° 0 mm 0 m/s 756 mmHg 83%

    11 Iunie, Joi

    Timp Temperatura Precipitaţii Vânt Presiune Umiditate
    00:00 +27°C° 0 mm 0 m/s 755 mmHg 84%
    01:00 +27°C° 0 mm 0 m/s 755 mmHg 84%
    02:00 +28°C° 0.1 mm 1 m/s 755 mmHg 84%
    03:00 +28°C° 0.1 mm 1 m/s 755 mmHg 85%
    04:00 +28°C° 0.1 mm 1 m/s 755 mmHg 85%
    05:00 +28°C° 0.2 mm 1 m/s 755 mmHg 84%
    06:00 +27°C° 0.2 mm 0 m/s 755 mmHg 82%
    07:00 +27°C° 0.2 mm 0 m/s 756 mmHg 80%
    08:00 +31°C° 0.3 mm 1 m/s 756 mmHg 73%
    09:00 +32°C° 0.3 mm 2 m/s 756 mmHg 66%
    10:00 +35°C° 0.3 mm 3 m/s 756 mmHg 60%
    11:00 +35°C° 0.4 mm 3 m/s 755 mmHg 57%
    12:00 +36°C° 0.4 mm 3 m/s 755 mmHg 55%
    13:00 +36°C° 0.4 mm 3 m/s 754 mmHg 53%
    14:00 +36°C° 0.1 mm 2 m/s 754 mmHg 54%
    15:00 +36°C° 0.1 mm 2 m/s 753 mmHg 56%
    16:00 +36°C° 0.1 mm 2 m/s 753 mmHg 57%
    17:00 +34°C° 0 mm 2 m/s 753 mmHg 62%
    18:00 +32°C° 0 mm 2 m/s 753 mmHg 67%
    19:00 +31°C° 0 mm 2 m/s 754 mmHg 72%
    20:00 +30°C° 0.1 mm 2 m/s 754 mmHg 73%
    21:00 +30°C° 0.1 mm 2 m/s 755 mmHg 73%
    22:00 +29°C° 0.1 mm 2 m/s 755 mmHg 74%
    23:00 +29°C° 0.2 mm 2 m/s 755 mmHg 76%
    Arată mai mult